Weather History for KAKO - January, 2012

Change the Weather History Date:

Thursday, January 12, 2012

  Actual Average Record
Temperature  
Mean Temperature 19 °F 29 °F  
Max Temperature 36 °F 40 °F 64 °F (1959)
Min Temperature 1 °F 17 °F -28 °F (1963)
Degree Days  
Heating Degree Days 46    
Month to date heating degree days 374  
Cooling Degree Days 0    
Month to date cooling degree days 0  
Moisture  
Dew Point 4 °F    
Average Humidity 51    
Maximum Humidity 75    
Minimum Humidity 26    
Precipitation  
Precipitation 0.00 in 0.01 in 0.25 in (1992)
Month to date precipitation T 0.09  
Year to date precipitation 0.09  
Sea Level Pressure  
Sea Level Pressure 30.22 in    
Wind  
Wind Speed 18 mph (NW)    
Max Wind Speed 33 mph    
Max Gust Speed 41 mph    
Visibility 10 miles    
Events      
T = Trace of Precipitation, MM = Missing Value Source: NWS Daily Summary

Daily Weather History Graph

Daily Weather History Graph

Search for Another Location

Airport or City:

Trip Planner

Search our weather history database for the weather conditions in past years. The results will help you decide how hot, cold, wet, or windy it might be!

Date:

Astronomy

Jan. 12, 2012 Rise Set
Actual Time 7:14 AM MST 4:47 PM MST
Civil Twilight 6:44 AM MST 5:17 PM MST
Nautical Twilight 6:10 AM MST 5:51 PM MST
Astronomical Twilight 5:38 AM MST 6:24 PM MST
Moon 8:56 PM MST (1/12) 8:59 AM MST (1/12)
Length of Visible Light 10h 33m
Length of Day
9h 33m
Waning Gibbous, 86% of the Moon is Illuminated
Jan 12
Waning Gibbous
Jan 16
Last Quarter
Jan 23
New
Jan 30
First Quarter
Feb 7
Full

Hourly Weather History & Observations

Time (MST) Temp. Windchill Dew Point Humidity Pressure Visibility Wind Dir Wind Speed Gust Speed Precip Events Conditions
12:53 AM 9.0 °F -9.0 °F -4.0 °F 56% 30.30 in 10.0 mi NW 17.3 mph 25.3 mph N/A   Clear
1:53 AM 10.0 °F -8.1 °F -5.1 °F 51% 30.27 in 10.0 mi NW 18.4 mph - N/A   Clear
2:53 AM 9.0 °F -9.0 °F -5.1 °F 53% 30.28 in 10.0 mi WNW 17.3 mph - N/A   Clear
3:53 AM 6.1 °F -12.2 °F -5.1 °F 60% 30.28 in 10.0 mi WNW 16.1 mph - N/A   Clear
5:53 AM 1.9 °F -17.5 °F -5.1 °F 72% 30.30 in 10.0 mi West 16.1 mph - N/A   Clear
6:53 AM 3.0 °F -14.1 °F -4.0 °F 73% 30.32 in 10.0 mi West 12.7 mph - N/A   Clear
8:53 AM 12.9 °F -2.2 °F 1.9 °F 62% 30.30 in 10.0 mi West 13.8 mph - N/A   Clear
9:53 AM 24.1 °F 13.7 °F 6.1 °F 46% 30.25 in 10.0 mi WNW 10.4 mph - N/A   Mostly Cloudy
10:53 AM 28.9 °F 16.5 °F 7.0 °F 40% 30.22 in 10.0 mi NW 18.4 mph - N/A   Clear
12:53 PM 35.1 °F 21.6 °F 6.1 °F 30% 30.13 in 10.0 mi NNW 31.1 mph 36.8 mph N/A   Clear
1:53 PM 36.0 °F 23.7 °F 5.0 °F 27% 30.11 in 10.0 mi NNW 26.5 mph 35.7 mph N/A   Partly Cloudy
2:53 PM 35.1 °F 23.0 °F 3.9 °F 27% 30.13 in 10.0 mi NNW 24.2 mph 39.1 mph N/A   Clear
3:53 PM 33.1 °F 20.3 °F 5.0 °F 31% 30.17 in 10.0 mi NNW 24.2 mph 31.1 mph N/A   Mostly Cloudy
4:53 PM 30.0 °F 16.9 °F 6.1 °F 36% 30.20 in 10.0 mi NNW 21.9 mph - N/A   Mostly Cloudy
5:53 PM 28.9 °F 17.7 °F 7.0 °F 40% 30.23 in 10.0 mi NW 15.0 mph - N/A   Overcast
7:53 PM 28.0 °F 13.9 °F 9.0 °F 45% 30.22 in 10.0 mi North 23.0 mph 29.9 mph N/A   Overcast
8:53 PM 28.0 °F 13.9 °F 12.0 °F 51% 30.22 in 10.0 mi NNW 23.0 mph 32.2 mph N/A   Overcast
9:53 PM 25.0 °F 14.8 °F 12.0 °F 58% 30.20 in 10.0 mi NNW 10.4 mph - N/A   Overcast
10:53 PM 23.0 °F 14.7 °F 10.9 °F 60% 30.17 in 10.0 mi WNW 6.9 mph - N/A   Mostly Cloudy
11:53 PM 18.0 °F 6.1 °F 8.1 °F 65% 30.15 in 10.0 mi West 10.4 mph - N/A   Clear